DateTimeUTC,F1_A11,F1_S11,BsB_S11,BsG_S11,BsR_S11,BbsB_S11,BbsG_S11,BbsR_S11,BaB_A11,BaG_A11,BaR_A11,Tu_S11,T_S11,Uu_S11,U_S11,P_S11,T1_A11
2021-04-04T10:00:00Z,00000200,21000000,,,,,,,-000.07,0000.36,-000.01,14.4,22.0,,00.0,0660.3,30.7
2021-04-04T10:01:00Z,00000200,21000000,,,,,,,-000.14,0000.43,0000.11,14.4,22.0,,00.0,0660.3,30.7
2021-04-04T10:02:00Z,00000200,21000000,,,,,,,0000.30,-000.15,-000.01,14.4,22.1,,00.0,0660.3,30.7
2021-04-04T10:03:00Z,00000200,61000000,,,,,,,0001.30,0001.26,0001.08,14.4,22.1,,00.0,0660.3,30.7
2021-04-04T10:04:00Z,00000200,41000000,0003.42,0002.45,0001.55,0000.28,0000.51,0000.42,0001.55,0001.51,0000.99,14.7,21.9,,00.0,0661.2,30.8
2021-04-04T10:05:00Z,00000200,01000000,0003.90,0002.24,0001.42,0000.30,0000.30,0000.20,0001.59,0001.48,0001.23,14.8,21.8,,00.0,0661.3,30.8
2021-04-04T10:06:00Z,00000200,01000000,0003.18,0002.16,0001.37,0000.66,0000.31,0000.17,0001.89,0001.59,0001.11,14.8,21.8,,00.0,0661.3,30.8
2021-04-04T10:07:00Z,00000200,01000000,0003.53,0002.35,0001.41,0000.20,0000.46,0000.28,0001.80,0001.84,0000.72,14.9,21.8,,00.0,0661.2,30.8
2021-04-04T10:08:00Z,00000200,01000000,0003.43,0002.32,0001.60,0000.37,0000.36,0000.35,0001.54,0001.10,0001.40,14.9,21.8,,00.0,0661.2,30.8
2021-04-04T10:09:00Z,00000200,01000000,0003.48,0002.27,0001.59,0000.35,0000.15,0000.52,0001.49,0001.65,0001.20,14.8,21.8,,00.0,0661.2,30.8
2021-04-04T10:10:00Z,00000200,01000000,0003.69,0002.47,0001.43,-000.04,0000.46,0000.31,0001.80,0001.43,0000.84,14.8,21.8,,00.0,0661.2,30.7
2021-04-04T10:11:00Z,00000200,01000000,0003.60,0002.39,0001.55,0000.78,0000.28,0000.30,0001.31,0001.41,0000.80,14.7,21.8,,00.0,0661.2,30.7
2021-04-04T10:12:00Z,00000200,01000000,0003.85,0002.24,0001.37,0000.09,0000.31,0000.10,0001.45,0000.79,0001.46,14.6,21.7,,00.0,0661.2,30.7
2021-04-04T10:13:00Z,00000200,01000000,0003.74,0002.46,0001.16,0001.05,0000.34,0000.42,0002.09,0001.74,0001.36,14.5,21.7,,00.0,0661.2,30.7
2021-04-04T10:14:00Z,00000200,01000000,0003.13,0002.36,0001.54,0000.72,0000.44,0000.24,0001.53,0001.79,0000.80,14.5,21.6,,00.0,0661.2,30.7
2021-04-04T10:15:00Z,00000200,01000000,0003.32,0002.20,0001.38,0000.42,0000.17,0000.13,0001.38,0001.66,0001.45,14.5,21.6,,00.0,0661.2,30.7
2021-04-04T10:16:00Z,00000200,01000000,0003.29,0002.67,0001.62,0000.73,0000.46,0000.09,0001.82,0001.21,0001.14,14.6,21.6,,00.0,0661.2,30.7
2021-04-04T10:17:00Z,00000200,01000000,0003.28,0002.34,0001.66,0000.26,0000.45,0000.49,0001.52,0001.61,0000.94,14.6,21.7,,00.0,0661.3,30.7
2021-04-04T10:18:00Z,00000200,01000000,0003.24,0002.52,0001.45,0001.02,0000.33,0000.08,0001.93,0001.85,0000.96,14.7,21.7,,00.0,0661.3,30.7
2021-04-04T10:19:00Z,00000200,01000000,0003.11,0002.24,0001.42,0000.44,0000.23,-000.07,0001.38,0001.19,0001.22,14.7,21.7,,00.0,0661.3,30.8
2021-04-04T10:20:00Z,00000200,01000000,0003.55,0002.55,0001.49,0000.50,0000.21,0000.15,0002.62,0002.52,0001.63,14.7,21.7,,00.0,0661.4,30.8
2021-04-04T10:21:00Z,00000200,01000000,0003.66,0002.29,0001.45,0000.35,0000.36,0000.29,0000.99,0000.67,0000.71,14.8,21.7,,00.0,0661.4,30.8
2021-04-04T10:22:00Z,00000200,01000000,0003.45,0002.43,0001.70,0000.79,0000.45,0000.26,0001.47,0001.38,0001.29,14.8,21.7,,00.0,0661.5,30.8
2021-04-04T10:23:00Z,00000200,01000000,0004.35,0002.35,0001.58,0000.74,0000.35,0000.48,0001.92,0001.58,0001.15,14.9,21.8,,00.0,0661.6,30.8
2021-04-04T10:24:00Z,00000200,01000000,0003.90,0002.38,0001.54,0000.79,0000.25,0000.19,0001.63,0001.51,0000.97,14.9,21.8,,00.0,0661.6,30.8
2021-04-04T10:25:00Z,00000200,01000000,0003.14,0002.38,0001.38,0000.30,0000.01,0000.14,0001.47,0001.51,0001.32,14.9,21.8,,00.0,0661.7,30.8
2021-04-04T10:26:00Z,00000200,01000000,0003.49,0002.64,0001.57,0000.15,0000.40,0000.05,0001.62,0002.07,0001.35,14.9,21.8,,00.0,0661.7,30.8
2021-04-04T10:27:00Z,00000200,01000000,0003.89,0002.32,0001.32,0000.53,0000.51,0000.17,0001.59,0000.79,0000.63,14.9,21.8,,00.0,0661.7,30.7
2021-04-04T10:28:00Z,00000200,01000000,0003.37,0002.33,0001.63,0000.50,0000.46,0000.25,0002.05,0001.57,0001.36,14.8,21.7,,00.0,0661.7,30.7
2021-04-04T10:29:00Z,00000200,01000000,0003.30,0002.79,0001.25,0001.26,0000.40,0000.36,0001.59,0001.61,0000.92,14.8,21.7,,00.0,0661.8,30.7
2021-04-04T10:30:00Z,00000200,01000000,0003.62,0002.24,0001.39,0000.72,0000.44,0000.04,0001.76,0002.22,0001.43,14.8,21.7,,00.0,0661.8,30.7
2021-04-04T10:31:00Z,00000200,01000000,0003.93,0002.59,0001.29,0000.47,0000.32,0000.24,0001.81,0001.45,0001.11,14.9,21.7,,00.0,0661.8,30.8
2021-04-04T10:32:00Z,00000200,01000000,0003.31,0002.19,0001.37,0000.41,0000.25,0000.31,0001.85,0001.75,0001.66,14.9,21.8,,00.0,0661.8,30.8
2021-04-04T10:33:00Z,00000200,01000000,0003.47,0002.34,0001.65,0000.27,0000.32,0000.35,0001.80,0000.89,0000.65,15.0,21.8,,00.0,0661.8,30.8
2021-04-04T10:34:00Z,00000200,01000000,0003.65,0002.47,0001.31,0000.69,0000.48,0000.20,0001.19,0001.68,0001.52,15.0,21.8,,00.0,0661.8,30.8
2021-04-04T10:35:00Z,00000200,01000000,0003.31,0002.53,0001.62,0000.50,0000.23,0000.18,0001.84,0001.54,0001.00,15.1,21.8,,00.0,0661.8,30.8
2021-04-04T10:36:00Z,00000200,01000000,0003.56,0002.22,0001.63,0000.64,0000.35,0000.22,0001.60,0001.52,0001.30,15.1,21.8,,00.0,0661.8,30.8
2021-04-04T10:37:00Z,00000200,01000000,0003.72,0002.19,0001.52,0000.60,0000.29,0000.18,0001.51,0001.44,0000.66,15.1,21.8,,00.0,0661.8,30.8
2021-04-04T10:38:00Z,00000200,01000000,0004.46,0002.15,0001.66,0000.61,0000.07,0000.41,0001.89,0002.03,0001.30,15.1,21.8,,00.0,0661.7,30.8
2021-04-04T10:39:00Z,00000200,01000000,0003.37,0002.22,0001.42,0000.58,0000.39,0000.09,0001.26,0000.88,0000.92,15.0,21.8,,00.0,0661.7,30.8
2021-04-04T10:40:00Z,00000200,01000000,0003.07,0002.52,0001.35,0000.80,0000.17,0000.21,0001.80,0001.46,0001.36,14.9,21.8,,00.0,0661.7,30.7
2021-04-04T10:41:00Z,00000200,01000000,0003.44,0002.38,0001.37,0000.94,0000.45,0000.21,0001.50,0001.37,0000.94,14.9,21.8,,00.0,0661.7,30.7
2021-04-04T10:42:00Z,00000200,01000000,0004.00,0002.50,0001.48,0000.18,0000.44,0000.32,0001.50,0001.01,0000.87,14.8,21.7,,00.0,0661.8,30.7
2021-04-04T10:43:00Z,00000200,01000000,0003.38,0002.53,0001.54,0000.75,0000.24,0000.30,0001.92,0001.86,0001.15,14.7,21.7,,00.0,0661.8,30.7
2021-04-04T10:44:00Z,00000200,01000000,0003.65,0002.53,0001.30,0001.33,0000.11,0000.26,0001.74,0001.75,0001.40,14.7,21.7,,00.0,0661.8,30.7
2021-04-04T10:45:00Z,00000200,01000000,0004.04,0002.45,0001.72,0000.49,0000.49,0000.17,0001.47,0001.29,0000.93,14.8,21.7,,00.0,0661.8,30.7
2021-04-04T10:46:00Z,00000200,01000000,0003.23,0002.39,0001.64,0000.34,0000.46,0000.11,0001.64,0001.72,0001.42,14.8,21.7,,00.0,0661.8,30.7
2021-04-04T10:47:00Z,00000200,01000000,0003.53,0002.19,0001.35,0000.35,0000.40,0000.03,0001.77,0001.50,0001.31,14.9,21.7,,00.0,0661.8,30.7
2021-04-04T10:48:00Z,00000200,01000000,0003.32,0002.42,0001.62,0000.64,0000.34,0000.32,0001.40,0001.17,0001.31,14.9,21.7,,00.0,0661.8,30.8
2021-04-04T10:49:00Z,00000200,01000000,0003.63,0002.23,0001.26,0000.34,0000.36,0000.31,0001.84,0001.88,0000.96,15.0,21.8,,00.0,0661.8,30.8
2021-04-04T10:50:00Z,00000200,01000000,0003.00,0002.23,0001.52,0000.19,0000.46,0000.31,0001.57,0001.29,0000.91,15.0,21.8,,00.0,0661.8,30.8
2021-04-04T10:51:00Z,00000200,01000000,0003.46,0002.33,0001.47,0000.76,0000.28,0000.24,0001.50,0001.66,0001.34,15.1,21.8,,00.0,0661.8,30.8
2021-04-04T10:52:00Z,00000200,01000000,0003.77,0002.42,0001.31,0000.12,0000.38,0000.10,0002.05,0002.03,0001.41,15.1,21.8,,00.0,0661.8,30.8
2021-04-04T10:53:00Z,00000200,01000000,0003.33,0002.32,0001.67,0000.17,0000.23,0000.30,0001.75,0001.08,0000.95,15.2,21.9,,00.0,0661.8,30.8
2021-04-04T10:54:00Z,00000200,01000000,0003.22,0002.42,0001.44,0000.77,0000.31,0000.27,0001.17,0001.24,0000.72,15.2,21.9,,00.0,0661.8,30.8
2021-04-04T10:55:00Z,00000200,01000000,0003.85,0002.14,0001.68,0000.34,0000.04,0000.36,0001.41,0001.40,0001.24,15.2,21.9,,00.0,0661.8,30.8
2021-04-04T10:56:00Z,00000200,01000000,0003.55,0002.66,0001.53,0000.74,0000.38,0000.07,0001.65,0001.26,0000.88,15.2,21.9,,00.0,0661.8,30.8
2021-04-04T10:57:00Z,00000200,41000000,,,,,,,-000.69,-000.12,0000.03,15.3,22.0,,00.0,0661.8,30.8
2021-04-04T10:58:00Z,00000200,61000000,,,,,,,0000.25,-000.16,0000.26,14.8,22.1,,00.0,0660.8,30.8
2021-04-04T10:59:00Z,00000200,21000000,,,,,,,0000.56,0000.86,0000.08,14.8,22.2,,00.0,0660.8,30.8
